| time (UTC) | temp C | wind direction | speed KPH | gust KPH | rain 1hr cm | rain 24hr cm | rain mn cm | humidity % | barometer mb |
| 20260509031512 | 13 | 240 | 0.0 | 0.0 | 0.00 | 0.00 | 0.00 | 61 | 1010.4 |
| 20260509030009 | 13 | 240 | 0.0 | 0.0 | 0.00 | 0.00 | 0.00 | 60 | 1010.5 |
| 20260509024507 | 14 | 240 | 0.0 | 1.6 | 0.00 | 0.00 | 0.00 | 59 | 1010.6 |
| 20260509023006 | 14 | 240 | 0.0 | 0.0 | 0.00 | 0.00 | 0.00 | 58 | 1010.5 |
| 20260509021504 | 15 | 240 | 0.0 | 0.0 | 0.00 | 0.00 | 0.00 | 56 | 1010.7 |
| 20260509014557 | 15 | 240 | 0.0 | 0.0 | 0.00 | 0.00 | 0.00 | 52 | 1010.6 |
| 20260509013054 | 16 | 240 | 0.0 | 0.0 | 0.00 | 0.00 | 0.00 | 51 | 1010.5 |
| 20260509011550 | 17 | 240 | 0.0 | 1.6 | 0.00 | 0.00 | 0.00 | 49 | 1010.6 |
| 20260509010047 | 17 | 240 | 0.0 | 0.0 | 0.00 | 0.00 | 0.00 | 46 | 1010.7 |
| 20260509004545 | 18 | 240 | 0.0 | 1.6 | 0.00 | 0.00 | 0.00 | 42 | 1010.7 |
| 20260509003042 | 18 | 240 | 0.0 | 0.0 | 0.00 | 0.00 | 0.00 | 41 | 1010.7 |
| 20260509001537 | 18 | 240 | 0.0 | 0.0 | 0.00 | 0.00 | 0.00 | 42 | 1010.7 |
| 20260509000034 | 19 | 240 | 0.0 | 0.0 | 0.00 | 0.00 | 0.00 | 41 | 1010.7 |
| 20260508234532 | 20 | 240 | 0.0 | 0.0 | 0.00 | 0.00 | 0.00 | 39 | 1010.8 |
| 20260508233039 | 20 | 240 | 0.0 | 0.0 | 0.00 | 0.00 | 0.00 | 40 | 1010.8 |
| 20260508231531 | 20 | 236 | 0.0 | 0.0 | 0.00 | 0.00 | 0.00 | 36 | 1010.9 |
| 20260508230029 | 21 | 236 | 0.0 | 0.0 | 0.00 | 0.00 | 0.00 | 35 | 1011.0 |
| 20260508224531 | 21 | 281 | 0.0 | 8.0 | 0.00 | 0.00 | 0.00 | 36 | 1011.1 |
| 20260508223038 | 21 | 210 | 0.0 | 1.6 | 0.00 | 0.00 | 0.00 | 34 | 1011.0 |
| 20260508221532 | 22 | 229 | 0.0 | 3.2 | 0.00 | 0.00 | 0.00 | 34 | 1011.0 |
| 20260508220031 | 22 | 248 | 3.2 | 11.3 | 0.00 | 0.00 | 0.00 | 33 | 1011.0 |
| 20260508214524 | 22 | 215 | 0.0 | 12.9 | 0.00 | 0.00 | 0.00 | 32 | 1011.2 |
| 20260508213022 | 22 | 229 | 0.0 | 6.4 | 0.00 | 0.00 | 0.00 | 39 | 1011.2 |
| 20260508211520 | 22 | 187 | 0.0 | 8.0 | 0.00 | 0.00 | 0.00 | 34 | 1011.5 |
| 20260508210022 | 22 | 216 | 0.0 | 6.4 | 0.00 | 0.00 | 0.00 | 35 | 1011.4 |
| 20260508204519 | 22 | 215 | 0.0 | 0.0 | 0.00 | 0.00 | 0.00 | 32 | 1011.5 |
| 20260508203023 | 22 | 220 | 0.0 | 8.0 | 0.00 | 0.00 | 0.00 | 34 | 1011.6 |
| 20260508201516 | 21 | 190 | 3.2 | 12.9 | 0.00 | 0.00 | 0.00 | 32 | 1011.8 |
| 20260508200013 | 21 | 226 | 0.0 | 12.9 | 0.00 | 0.00 | 0.00 | 35 | 1012.1 |
| 20260508194509 | 21 | 215 | 4.8 | 14.5 | 0.00 | 0.00 | 0.00 | 31 | 1012.4 |
| 20260508193007 | 21 | 141 | 0.0 | 17.7 | 0.00 | 0.00 | 0.00 | 33 | 1012.6 |
| 20260508191512 | 21 | 282 | 0.0 | 4.8 | 0.00 | 0.00 | 0.00 | 39 | 1012.9 |
| 20260508190100 | 21 | 232 | 0.0 | 0.0 | 0.00 | 0.00 | 0.00 | 36 | 1013.2 |
| 20260508190001 | 21 | 236 | 0.0 | 9.7 | 0.00 | 0.00 | 0.00 | 36 | 1013.3 |
| 20260508184600 | 20 | 163 | 0.0 | 6.4 | 0.00 | 0.00 | 0.00 | 33 | 1013.6 |
| 20260508183105 | 20 | 167 | 0.0 | 3.2 | 0.00 | 0.00 | 0.00 | 38 | 1013.9 |
| 20260508181557 | 20 | 230 | 0.0 | 0.0 | 0.00 | 0.00 | 0.00 | 35 | 1014.1 |
| 20260508180114 | 20 | 190 | 0.0 | 4.8 | 0.00 | 0.00 | 0.00 | 37 | 1014.3 |
| 20260508174605 | 20 | 267 | 1.6 | 9.7 | 0.00 | 0.00 | 0.00 | 37 | 1014.7 |
| 20260508173053 | 20 | 248 | 0.0 | 9.7 | 0.00 | 0.00 | 0.00 | 42 | 1015.0 |
| 20260508171551 | 20 | 225 | 0.0 | 0.0 | 0.00 | 0.00 | 0.00 | 39 | 1015.3 |
| 20260508170046 | 19 | 205 | 0.0 | 0.0 | 0.00 | 0.00 | 0.00 | 42 | 1015.6 |
| 20260508164545 | 18 | 229 | 0.0 | 0.0 | 0.00 | 0.00 | 0.00 | 46 | 1015.7 |
| 20260508163041 | 18 | 225 | 0.0 | 6.4 | 0.00 | 0.00 | 0.00 | 43 | 1016.1 |
| 20260508161540 | 18 | 191 | 0.0 | 0.0 | 0.00 | 0.00 | 0.00 | 46 | 1016.3 |
| 20260508160036 | 17 | 226 | 0.0 | 0.0 | 0.00 | 0.00 | 0.00 | 48 | 1016.6 |
| 20260508154533 | 17 | 222 | 0.0 | 8.0 | 0.00 | 0.00 | 0.00 | 48 | 1016.9 |
| 20260508153034 | 16 | 173 | 1.6 | 11.3 | 0.00 | 0.00 | 0.00 | 51 | 1017.0 |
| 20260508151526 | 16 | 248 | 0.0 | 3.2 | 0.00 | 0.00 | 0.00 | 47 | 1017.0 |
| 20260508150024 | 15 | 199 | 0.0 | 11.3 | 0.00 | 0.00 | 0.00 | 50 | 1017.1 |
| 20260508144518 | 13 | 226 | 0.0 | 4.8 | 0.00 | 0.00 | 0.00 | 60 | 1017.1 |
| 20260508143015 | 12 | 216 | 1.6 | 6.4 | 0.00 | 0.00 | 0.00 | 68 | 1017.3 |
| 20260508141512 | 10 | 127 | 0.0 | 0.0 | 0.00 | 0.00 | 0.00 | 82 | 1017.4 |
| 20260508140008 | 9 | 126 | 0.0 | 0.0 | 0.00 | 0.00 | 0.00 | 85 | 1017.2 |
| 20260508134511 | 7 | 74 | 0.0 | 3.2 | 0.00 | 0.00 | 0.00 | 89 | 1017.2 |
| 20260508133006 | 7 | 74 | 0.0 | 0.0 | 0.00 | 0.00 | 0.00 | 90 | 1017.1 |
| 20260508131504 | 6 | 73 | 0.0 | 0.0 | 0.00 | 0.00 | 0.00 | 90 | 1017.0 |
| 20260508130003 | 5 | 71 | 0.0 | 1.6 | 0.00 | 0.00 | 0.00 | 90 | 1017.0 |
| 20260508124559 | 5 | 71 | 0.0 | 0.0 | 0.00 | 0.00 | 0.00 | 90 | 1016.9 |
| 20260508123058 | 5 | 71 | 0.0 | 0.0 | 0.00 | 0.00 | 0.00 | 90 | 1016.8 |
| 20260508121557 | 4 | 61 | 0.0 | 4.8 | 0.00 | 0.00 | 0.00 | 90 | 1016.7 |
| 20260508120055 | 3 | 59 | 0.0 | 0.0 | 0.00 | 0.00 | 0.00 | 89 | 1016.7 |
| 20260508114606 | 3 | 59 | 0.0 | 1.6 | 0.00 | 0.00 | 0.00 | 89 | 1016.6 |
| 20260508113102 | 3 | 18 | 0.0 | 0.0 | 0.00 | 0.00 | 0.00 | 89 | 1016.5 |
| 20260508111601 | 3 | 18 | 0.0 | 0.0 | 0.00 | 0.00 | 0.00 | 89 | 1016.2 |
| 20260508110047 | 3 | 18 | 0.0 | 3.2 | 0.00 | 0.00 | 0.00 | 89 | 1016.1 |
| 20260508104544 | 3 | 16 | 0.0 | 0.0 | 0.00 | 0.00 | 0.00 | 88 | 1015.9 |
| 20260508103042 | 4 | 16 | 0.0 | 0.0 | 0.00 | 0.00 | 0.00 | 88 | 1015.7 |
| 20260508101540 | 4 | 16 | 0.0 | 1.6 | 0.00 | 0.00 | 0.00 | 88 | 1015.6 |
| 20260508100039 | 4 | 16 | 0.0 | 0.0 | 0.00 | 0.00 | 0.00 | 88 | 1015.4 |
| 20260508094540 | 4 | 16 | 0.0 | 0.0 | 0.00 | 0.00 | 0.00 | 88 | 1015.3 |
| 20260508093038 | 4 | 16 | 0.0 | 0.0 | 0.00 | 0.00 | 0.00 | 87 | 1015.6 |
| 20260508091543 | 5 | 16 | 0.0 | 0.0 | 0.00 | 0.00 | 0.00 | 88 | 1015.6 |
| 20260508090034 | 5 | 16 | 0.0 | 0.0 | 0.00 | 0.00 | 0.00 | 87 | 1015.6 |
| 20260508084533 | 5 | 16 | 0.0 | 0.0 | 0.00 | 0.00 | 0.00 | 87 | 1015.6 |
| 20260508083034 | 5 | 16 | 0.0 | 0.0 | 0.00 | 0.00 | 0.00 | 87 | 1015.5 |
| 20260508081543 | 5 | 16 | 0.0 | 0.0 | 0.00 | 0.00 | 0.00 | 86 | 1015.4 |
| 20260508080029 | 5 | 16 | 0.0 | 0.0 | 0.00 | 0.00 | 0.00 | 86 | 1015.4 |
| 20260508074529 | 5 | 16 | 0.0 | 0.0 | 0.00 | 0.00 | 0.00 | 85 | 1015.3 |
| 20260508073027 | 5 | 16 | 0.0 | 3.2 | 0.00 | 0.00 | 0.00 | 85 | 1015.5 |
| 20260508071526 | 5 | 16 | 0.0 | 0.0 | 0.00 | 0.00 | 0.00 | 84 | 1015.5 |
| 20260508070024 | 6 | 16 | 0.0 | 0.0 | 0.00 | 0.00 | 0.00 | 82 | 1015.5 |
| 20260508064527 | 6 | 16 | 0.0 | 0.0 | 0.00 | 0.00 | 0.00 | 81 | 1015.7 |
| 20260508063022 | 6 | 16 | 0.0 | 0.0 | 0.00 | 0.00 | 0.00 | 78 | 1015.6 |
| 20260508061520 | 6 | 16 | 0.0 | 0.0 | 0.00 | 0.00 | 0.00 | 80 | 1015.5 |
| 20260508060017 | 6 | 16 | 0.0 | 0.0 | 0.00 | 0.00 | 0.00 | 81 | 1015.6 |
| 20260508054516 | 6 | 16 | 0.0 | 0.0 | 0.00 | 0.00 | 0.00 | 81 | 1015.7 |
| 20260508053014 | 7 | 16 | 0.0 | 0.0 | 0.00 | 0.00 | 0.00 | 81 | 1015.8 |
| 20260508051520 | 7 | 16 | 0.0 | 1.6 | 0.00 | 0.00 | 0.00 | 77 | 1016.0 |
| 20260508050010 | 8 | 16 | 0.0 | 0.0 | 0.00 | 0.00 | 0.00 | 74 | 1015.8 |
| 20260508044507 | 8 | 16 | 0.0 | 0.0 | 0.00 | 0.00 | 0.00 | 72 | 1015.9 |
| 20260508043007 | 8 | 16 | 0.0 | 0.0 | 0.00 | 0.00 | 0.00 | 72 | 1015.6 |
| 20260508041610 | 9 | 16 | 0.0 | 0.0 | 0.00 | 0.00 | 0.00 | 70 | 1015.4 |
| 20260508040100 | 9 | 16 | 0.0 | 0.0 | 0.00 | 0.00 | 0.00 | 61 | 1015.3 |
| 20260508034600 | 9 | 16 | 0.0 | 0.0 | 0.00 | 0.00 | 0.00 | 58 | 1015.2 |
| 20260508033100 | 10 | 16 | 0.0 | 0.0 | 0.00 | 0.00 | 0.00 | 61 | 1015.3 |